User: anonymous   Login
Location: Rancho Penasquitos
(32.9595°N, 117.1153°W)
Time: 23:38:57
(UTC+00:00)
Language:

Cosmos 1633 Rocket - Orbit

View from above orbital plane
View from above orbital plane
View from above satellite
View from above satellite

Ground track
Ground track

The orbit data is extracted from the following two-line orbital elements,

1 15593U 85020B   22275.40192582  .00000504  00000-0  56786-4 0  9992
2 15593  82.5355 253.3111 0012777 128.7620 231.4740 14.84625861  9970
Epoch (UTC): 02 October 2022 09:38:46
Eccentricity: 0.0012777
inclination: 82.5355°
perigee height: 606 km
apogee height: 624 km
right ascension of ascending node: 253.3111°
argument of perigee: 128.7620°
revolutions per day: 14.84625861
mean anomaly at epoch: 231.4740°
orbit number at epoch: 997

The dashed part of the orbit path shows where the satellite is in the earth's shadow,  

DLR